This is the latest recevied weather packets stored in our database for station/object KQ4OSL. If no packets are shown the sender has not sent any weather packets the latest 10 day(s).
| Time | Temp. | Humidity | Pressure | Rain* | Wind** | Luminosity | Snow |
|---|---|---|---|---|---|---|---|
| 1777996915 | 21.67° C | 54% | 1017.4 hPa | 0 mm | - | 723 W/m² | - |
| 1777996611 | 21.67° C | 55% | 1017.7 hPa | 0 mm | - | 719 W/m² | - |
| 1777996307 | 21.67° C | 55% | 1017.8 hPa | 0 mm | - | 717 W/m² | - |
| 1777996004 | 21.67° C | 53% | 1017.9 hPa | 0 mm | - | 706 W/m² | - |
| 1777995700 | 21.67° C | 55% | 1017.8 hPa | 0 mm | - | 698 W/m² | - |
| 1777995397 | 21.67° C | 53% | 1017.9 hPa | 0 mm | - | 692 W/m² | - |
| 1777995095 | 21.67° C | 51% | 1017.9 hPa | 0 mm | - | 681 W/m² | - |
| 1777994791 | 22.22° C | 49% | 1018.1 hPa | 0 mm | - | 673 W/m² | - |
| 1777994487 | 21.67° C | 53% | 1018.1 hPa | 0 mm | - | 663 W/m² | - |
| 1777994182 | 22.22° C | 52% | 1018 hPa | 0 mm | - | 656 W/m² | - |
| 1777993880 | 22.22° C | 51% | 1017.9 hPa | 0 mm | - | 643 W/m² | - |
| 1777993576 | 21.67° C | 51% | 1017.8 hPa | 0 mm | - | 637 W/m² | - |
| 1777993273 | 21.67° C | 56% | 1017.7 hPa | 0 mm | - | 626 W/m² | - |
| 1777992968 | 21.67° C | 60% | 1017.8 hPa | 0 mm | - | 610 W/m² | - |
| 1777992667 | 22.22° C | 57% | 1017.7 hPa | 0 mm | - | 602 W/m² | - |
| 1777992364 | 22.22° C | 56% | 1017.6 hPa | 0 mm | - | 589 W/m² | - |
| 1777992062 | 21.67° C | 59% | 1017.7 hPa | 0 mm | - | 575 W/m² | - |
| 1777991759 | 21.67° C | 59% | 1017.8 hPa | 0 mm | - | 567 W/m² | - |
| 1777991456 | 21.11° C | 59% | 1017.7 hPa | 0 mm | - | 500 W/m² | - |
| 1777991153 | 21.11° C | 60% | 1017.8 hPa | 0 mm | - | 521 W/m² | - |
| 1777990851 | 20.56° C | 60% | 1017.9 hPa | 0 mm | - | 526 W/m² | - |
| 1777990548 | 20° C | 58% | 1017.8 hPa | 0 mm | - | 514 W/m² | - |
| 1777989941 | 20° C | 65% | 1017.5 hPa | 0 mm | - | 476 W/m² | - |
| 1777989638 | 20° C | 62% | 1017.5 hPa | 0 mm | - | 468 W/m² | - |
| 1777989334 | 20.56° C | 66% | 1017.5 hPa | 0 mm | - | 454 W/m² | - |
* Rain latest hour (hover to see other rain measurements)
** Current wind speed in m/s (hover to see current wind gust speed)